CW4232 Weather Reports


time (UTC)temp
C
wind
direction
speed
KPH
gust
KPH
rain 1hr
cm
rain 24hr
cm
rain mn
cm
humidity
%
barometer
mb
20260507234543 22 208 16.1 37.0 0.00 0.00 0.00 24 1014.5
20260507233056 22 229 16.1 48.3 0.00 0.00 0.00 24 1014.5
20260507231541 22 209 22.5 32.2 0.00 0.00 0.00 25 1014.7
20260507230050 22 263 19.3 35.4 0.00 0.00 0.00 23 1014.6
20260507224555 23 245 25.7 38.6 0.00 0.00 0.00 22 1014.3
20260507223047 24 0 4.8 17.7 0.00 0.00 0.00 19 1013.9
20260507221544 24 283 8.0 22.5 0.00 0.00 0.00 19 1013.9
20260507220041 25 5 6.4 22.5 0.00 0.00 0.00 19 1014.0
20260507214537 26 30 8.0 22.5 0.00 0.00 0.00 19 1014.0
20260507213100 25 46 8.0 24.1 0.00 0.00 0.00 19 1014.3
20260507211549 25 327 8.0 16.1 0.00 0.00 0.00 19 1014.3
20260507210049 25 309 4.8 19.3 0.00 0.00 0.00 19 1014.5
20260507204542 26 306 8.0 17.7 0.00 0.00 0.00 18 1014.5
20260507203047 26 329 3.2 27.4 0.00 0.00 0.00 18 1014.6
20260507201540 26 207 9.7 24.1 0.00 0.00 0.00 18 1014.8
20260507200049 26 156 6.4 27.4 0.00 0.00 0.00 20 1014.9
20260507194614 25 144 8.0 19.3 0.00 0.00 0.00 19 1015.2
20260507193044 25 217 6.4 30.6 0.00 0.00 0.00 19 1015.3
20260507191541 25 109 8.0 25.7 0.00 0.00 0.00 19 1015.5
20260507190049 25 202 11.3 27.4 0.00 0.00 0.00 19 1015.9
20260507184540 25 131 14.5 37.0 0.00 0.00 0.00 20 1016.0
20260507183048 25 145 19.3 32.2 0.00 0.00 0.00 20 1016.1
20260507181554 25 144 16.1 33.8 0.00 0.00 0.00 21 1016.3
20260507180047 23 254 3.2 22.5 0.00 0.00 0.00 21 1016.2
20260507174553 22 303 9.7 22.5 0.00 0.00 0.00 23 1016.2
20260507173119 22 254 4.8 19.3 0.00 0.00 0.00 25 1016.5
20260507171554 22 226 6.4 17.7 0.00 0.00 0.00 25 1016.6
20260507170107 22 88 3.2 14.5 0.00 0.00 0.00 26 1016.8
20260507164555 21 323 3.2 12.9 0.00 0.00 0.00 26 1017.0
20260507163042 21 291 4.8 11.3 0.00 0.00 0.00 27 1017.1
20260507161556 20 238 6.4 14.5 0.00 0.00 0.00 27 1017.2
20260507160041 19 266 3.2 14.5 0.00 0.00 0.00 29 1017.4
20260507154542 18 217 6.4 14.5 0.00 0.00 0.00 30 1017.6
20260507153056 18 238 4.8 14.5 0.00 0.00 0.00 31 1017.7
20260507151546 18 269 4.8 12.9 0.00 0.00 0.00 32 1017.6
20260507150047 18 342 3.2 9.7 0.00 0.00 0.00 32 1017.8
20260507144546 17 55 4.8 14.5 0.00 0.00 0.00 33 1017.6
20260507143043 16 41 6.4 16.1 0.00 0.00 0.00 36 1017.6
20260507141607 15 67 8.0 14.5 0.00 0.00 0.00 41 1017.7
20260507140049 11 54 3.2 8.0 0.00 0.00 0.00 50 1017.8
20260507134545 9 0 0.0 6.4 0.00 0.00 0.00 52 1017.8
20260507133043 9 32 1.6 8.0 0.00 0.00 0.00 53 1017.8
20260507131551 8 0 0.0 1.6 0.00 0.00 0.00 55 1017.7
20260507130050 8 0 0.0 0.0 0.00 0.00 0.00 54 1017.5
20260507124540 7 195 1.6 4.8 0.00 0.00 0.00 55 1017.5
20260507123048 7 188 1.6 4.8 0.00 0.00 0.00 56 1017.3
20260507121546 7 290 0.0 0.0 0.00 0.00 0.00 57 1017.2
20260507120053 7 0 0.0 3.2 0.00 0.00 0.00 57 1017.1
20260507114544 7 0 0.0 0.0 0.00 0.00 0.00 56 1017.1
20260507113052 7 0 0.0 3.2 0.00 0.00 0.00 55 1017.3
20260507111541 7 302 1.6 4.8 0.00 0.00 0.00 55 1017.3
20260507110047 7 0 0.0 3.2 0.00 0.00 0.00 53 1017.4
20260507104546 8 316 0.0 1.6 0.00 0.00 0.00 51 1017.2
20260507103043 8 0 0.0 0.0 0.00 0.00 0.00 50 1017.2
20260507101542 8 0 0.0 0.0 0.00 0.00 0.00 50 1017.2
20260507100043 9 0 1.6 6.4 0.00 0.00 0.00 49 1017.3
20260507094544 10 0 0.0 3.2 0.00 0.00 0.00 47 1017.4
20260507093048 11 319 3.2 6.4 0.00 0.00 0.00 45 1017.4
20260507091546 11 0 0.0 11.3 0.00 0.00 0.00 45 1017.4
20260507090045 11 51 4.8 6.4 0.00 0.00 0.00 45 1017.5
20260507084541 11 346 0.0 3.2 0.00 0.00 0.00 45 1017.7
20260507083040 11 309 0.0 4.8 0.00 0.00 0.00 43 1017.8
20260507081545 12 5 0.0 6.4 0.00 0.00 0.00 41 1017.9
20260507080047 13 331 1.6 6.4 0.00 0.00 0.00 38 1018.0
20260507074549 13 66 6.4 14.5 0.00 0.00 0.00 38 1017.8
20260507073102 13 26 3.2 9.7 0.00 0.00 0.00 39 1018.0
20260507071542 13 40 3.2 8.0 0.00 0.00 0.00 39 1017.9
20260507070044 13 0 0.0 6.4 0.00 0.00 0.00 38 1018.1
20260507064552 14 57 4.8 9.7 0.00 0.00 0.00 36 1018.0
20260507063047 15 100 1.6 8.0 0.00 0.00 0.00 36 1018.1
20260507061541 15 55 4.8 9.7 0.00 0.00 0.00 35 1018.1
20260507060048 15 53 4.8 12.9 0.00 0.00 0.00 34 1018.0
20260507054546 16 71 4.8 14.5 0.00 0.00 0.00 32 1018.1
20260507053045 17 90 11.3 17.7 0.00 0.00 0.00 30 1017.9
20260507051542 17 62 4.8 14.5 0.00 0.00 0.00 30 1017.7
20260507050042 17 71 9.7 17.7 0.00 0.00 0.00 29 1017.5
20260507044541 17 101 12.9 17.7 0.00 0.00 0.00 29 1017.5
20260507043047 18 84 8.0 16.1 0.00 0.00 0.00 29 1017.3
20260507041546 18 78 8.0 17.7 0.00 0.00 0.00 28 1017.1
20260507040040 18 78 8.0 16.1 0.00 0.00 0.00 29 1016.9
20260507034549 18 53 11.3 22.5 0.00 0.00 0.00 29 1016.8
20260507033100 18 71 8.0 20.9 0.00 0.00 0.00 29 1016.8
20260507031546 18 55 9.7 20.9 0.00 0.00 0.00 29 1016.7
20260507030041 18 57 11.3 19.3 0.00 0.00 0.00 28 1016.5
20260507024551 19 34 9.7 19.3 0.00 0.00 0.00 28 1016.5
20260507023047 19 56 6.4 16.1 0.00 0.00 0.00 28 1016.3
20260507021541 20 34 9.7 16.1 0.00 0.00 0.00 27 1016.2
20260507020044 21 36 4.8 16.1 0.00 0.00 0.00 25 1015.9
20260507014552 22 319 4.8 12.9 0.00 0.00 0.00 23 1015.7
20260507013103 23 295 4.8 12.9 0.00 0.00 0.00 21 1015.7
20260507011550 23 317 0.0 6.4 0.00 0.00 0.00 19 1015.6
20260507010053 23 317 1.6 11.3 0.00 0.00 0.00 19 1015.5
20260507004547 23 317 3.2 16.1 0.00 0.00 0.00 18 1015.6
20260507003044 23 242 12.9 22.5 0.00 0.00 0.00 18 1015.5
20260507001607 23 0 1.6 14.5 0.00 0.00 0.00 18 1015.4
20260507000051 23 283 9.7 17.7 0.00 0.00 0.00 18 1015.4